• In Austria
  • List of Countries
  • For 7 days
  • Water Temperature
  • Satellite Maps
  • Weather Map
  • News
  • Weather Widgets
  • user-avatar
    Login

    Hourly Weather Golden Sands

    Today, 18 December, Monday

    Time Temperature Precipitation Wind Pressure Humidity
    00:00 +1°C° 0 mm 9 mps 758 mmHg 82%
    01:00 +1°C° 0 mm 9 mps 759 mmHg 83%
    02:00 +1°C° 0 mm 9 mps 760 mmHg 83%
    03:00 0°C° 0 mm 9 mps 760 mmHg 82%
    04:00 0°C° 0 mm 8 mps 761 mmHg 82%
    05:00 0°C° 0 mm 8 mps 761 mmHg 81%
    06:00 0°C° 0 mm 8 mps 762 mmHg 82%
    07:00 0°C° 0 mm 7 mps 762 mmHg 83%
    08:00 -1°C° 0 mm 7 mps 762 mmHg 84%
    09:00 +1°C° 0 mm 6 mps 763 mmHg 80%
    10:00 +2°C° 0 mm 6 mps 763 mmHg 76%
    11:00 +3°C° 0 mm 5 mps 763 mmHg 72%
    12:00 +3°C° 0 mm 5 mps 763 mmHg 70%
    13:00 +4°C° 0 mm 4 mps 763 mmHg 69%
    14:00 +4°C° 0 mm 4 mps 763 mmHg 67%
    15:00 +4°C° 0 mm 4 mps 763 mmHg 68%
    16:00 +4°C° 0 mm 4 mps 763 mmHg 70%
    17:00 +4°C° 0 mm 4 mps 764 mmHg 71%
    18:00 +2°C° 0 mm 5 mps 764 mmHg 72%
    19:00 +2°C° 0 mm 5 mps 764 mmHg 73%
    20:00 +1°C° 0 mm 5 mps 764 mmHg 74%
    21:00 +1°C° 0.1 mm 6 mps 764 mmHg 74%
    22:00 +1°C° 0.1 mm 6 mps 764 mmHg 74%
    23:00 +1°C° 0.1 mm 6 mps 764 mmHg 74%

    Tomorrow, 19 December, Tuesday

    Time Temperature Precipitation Wind Pressure Humidity
    00:00 +1°C° 0.3 mm 6 mps 765 mmHg 74%
    01:00 0°C° 0.3 mm 7 mps 765 mmHg 75%
    02:00 -1°C° 0.3 mm 7 mps 765 mmHg 76%
    03:00 -1°C° 0.4 mm 7 mps 765 mmHg 77%
    04:00 -1°C° 0.4 mm 7 mps 765 mmHg 79%
    05:00 -1°C° 0.4 mm 8 mps 765 mmHg 80%
    06:00 -1°C° 0.6 mm 8 mps 766 mmHg 81%
    07:00 -1°C° 0.6 mm 8 mps 766 mmHg 82%
    08:00 -2°C° 0.6 mm 8 mps 767 mmHg 83%
    09:00 -1°C° 0.3 mm 8 mps 767 mmHg 81%
    10:00 -1°C° 0.3 mm 8 mps 768 mmHg 78%
    11:00 -1°C° 0.3 mm 9 mps 768 mmHg 76%
    12:00 -1°C° 0.1 mm 9 mps 768 mmHg 74%
    13:00 0°C° 0.1 mm 8 mps 768 mmHg 71%
    14:00 0°C° 0.1 mm 8 mps 768 mmHg 69%
    15:00 0°C° 0.1 mm 8 mps 769 mmHg 70%
    16:00 -1°C° 0.1 mm 7 mps 769 mmHg 70%
    17:00 -1°C° 0.1 mm 7 mps 769 mmHg 71%
    18:00 -1°C° 0 mm 7 mps 770 mmHg 74%
    19:00 -1°C° 0 mm 6 mps 770 mmHg 76%
    20:00 -1°C° 0 mm 6 mps 771 mmHg 78%
    21:00 -1°C° 0 mm 6 mps 771 mmHg 80%
    22:00 -1°C° 0 mm 6 mps 771 mmHg 82%
    23:00 -2°C° 0 mm 6 mps 771 mmHg 84%

    Day after tomorrow, 20 December, Wednesday

    Time Temperature Precipitation Wind Pressure Humidity
    00:00 -2°C° 0 mm 6 mps 771 mmHg 85%
    01:00 -1°C° 0 mm 5 mps 771 mmHg 86%
    02:00 -1°C° 0 mm 5 mps 771 mmHg 86%
    03:00 -1°C° 0 mm 5 mps 771 mmHg 87%
    04:00 -1°C° 0 mm 5 mps 771 mmHg 87%
    05:00 -2°C° 0 mm 5 mps 771 mmHg 87%
    06:00 -2°C° 0 mm 5 mps 771 mmHg 85%
    07:00 -2°C° 0 mm 4 mps 771 mmHg 84%
    08:00 -2°C° 0 mm 4 mps 772 mmHg 82%
    09:00 -1°C° 0 mm 4 mps 772 mmHg 78%
    10:00 0°C° 0 mm 4 mps 772 mmHg 73%
    11:00 +1°C° 0 mm 4 mps 772 mmHg 68%
    12:00 +1°C° 0 mm 4 mps 772 mmHg 68%
    13:00 +1°C° 0 mm 4 mps 772 mmHg 68%
    14:00 +1°C° 0 mm 4 mps 771 mmHg 68%
    15:00 +1°C° 0 mm 4 mps 771 mmHg 71%
    16:00 +2°C° 0 mm 3 mps 771 mmHg 73%
    17:00 +1°C° 0 mm 3 mps 771 mmHg 76%
    18:00 +1°C° 0 mm 3 mps 772 mmHg 78%
    19:00 0°C° 0 mm 3 mps 772 mmHg 79%
    20:00 0°C° 0 mm 3 mps 772 mmHg 81%
    21:00 -2°C° 0 mm 4 mps 772 mmHg 82%
    22:00 -2°C° 0 mm 4 mps 772 mmHg 83%
    23:00 -2°C° 0 mm 4 mps 772 mmHg 84%

    21 December, Thursday

    Time Temperature Precipitation Wind Pressure Humidity
    00:00 -2°C° 0 mm 4 mps 772 mmHg 84%
    01:00 -2°C° 0 mm 4 mps 772 mmHg 85%
    02:00 -3°C° 0 mm 4 mps 772 mmHg 85%
    03:00 -3°C° 0 mm 4 mps 772 mmHg 85%
    04:00 -2°C° 0 mm 3 mps 772 mmHg 86%
    05:00 -2°C° 0 mm 3 mps 772 mmHg 86%
    06:00 -2°C° 0 mm 3 mps 773 mmHg 85%
    07:00 -2°C° 0 mm 3 mps 773 mmHg 85%
    08:00 -2°C° 0 mm 3 mps 773 mmHg 85%
    09:00 -1°C° 0 mm 3 mps 773 mmHg 79%
    10:00 0°C° 0 mm 3 mps 773 mmHg 74%
    11:00 +1°C° 0 mm 3 mps 773 mmHg 68%
    12:00 +1°C° 0 mm 3 mps 773 mmHg 66%
    13:00 +1°C° 0 mm 3 mps 773 mmHg 63%
    14:00 +2°C° 0 mm 3 mps 772 mmHg 60%
    15:00 +1°C° 0 mm 3 mps 772 mmHg 64%
    16:00 0°C° 0 mm 3 mps 772 mmHg 68%
    17:00 -1°C° 0 mm 3 mps 772 mmHg 72%
    18:00 -2°C° 0 mm 4 mps 772 mmHg 74%
    19:00 -2°C° 0 mm 4 mps 772 mmHg 76%
    20:00 -2°C° 0 mm 4 mps 772 mmHg 78%
    21:00 -2°C° 0 mm 4 mps 772 mmHg 78%
    22:00 -4°C° 0 mm 5 mps 772 mmHg 78%
    23:00 -4°C° 0 mm 5 mps 772 mmHg 79%

    22 December, Friday

    Time Temperature Precipitation Wind Pressure Humidity
    00:00 -4°C° 0 mm 5 mps 771 mmHg 78%
    01:00 -4°C° 0 mm 6 mps 771 mmHg 77%
    02:00 -4°C° 0 mm 6 mps 770 mmHg 76%
    03:00 -4°C° 0 mm 6 mps 770 mmHg 76%
    04:00 -4°C° 0 mm 6 mps 770 mmHg 76%
    05:00 -4°C° 0 mm 6 mps 770 mmHg 75%
    06:00 -4°C° 0 mm 6 mps 770 mmHg 75%
    07:00 -4°C° 0 mm 5 mps 769 mmHg 75%
    08:00 -4°C° 0 mm 5 mps 769 mmHg 75%
    09:00 -2°C° 0 mm 5 mps 769 mmHg 69%
    10:00 -1°C° 0 mm 5 mps 769 mmHg 64%
    11:00 0°C° 0 mm 5 mps 769 mmHg 59%
    12:00 +1°C° 0 mm 5 mps 768 mmHg 58%
    13:00 +2°C° 0 mm 6 mps 768 mmHg 58%
    14:00 +2°C° 0 mm 6 mps 767 mmHg 57%
    15:00 +1°C° 0 mm 6 mps 767 mmHg 62%
    16:00 +1°C° 0 mm 6 mps 766 mmHg 67%
    17:00 -1°C° 0 mm 6 mps 766 mmHg 72%
    18:00 -1°C° 0 mm 6 mps 766 mmHg 72%
    19:00 -1°C° 0 mm 6 mps 766 mmHg 73%
    20:00 -1°C° 0 mm 6 mps 765 mmHg 74%
    21:00 -1°C° 0 mm 7 mps 765 mmHg 77%
    22:00 0°C° 0 mm 8 mps 765 mmHg 80%
    23:00 0°C° 0 mm 8 mps 764 mmHg 83%

    23 December, Saturday

    Time Temperature Precipitation Wind Pressure Humidity
    00:00 0°C° 0 mm 9 mps 764 mmHg 83%
    01:00 0°C° 0 mm 9 mps 764 mmHg 84%
    02:00 0°C° 0 mm 10 mps 764 mmHg 85%
    03:00 0°C° 0 mm 9 mps 764 mmHg 85%
    04:00 -1°C° 0 mm 8 mps 764 mmHg 85%
    05:00 -1°C° 0 mm 7 mps 764 mmHg 85%
    06:00 -1°C° 0 mm 7 mps 764 mmHg 86%
    07:00 -2°C° 0 mm 7 mps 764 mmHg 87%
    08:00 -2°C° 0 mm 6 mps 765 mmHg 87%
    09:00 -1°C° 0 mm 7 mps 764 mmHg 82%
    10:00 0°C° 0 mm 7 mps 764 mmHg 76%
    11:00 +2°C° 0 mm 7 mps 764 mmHg 71%
    12:00 +2°C° 0 mm 7 mps 763 mmHg 69%
    13:00 +3°C° 0 mm 7 mps 763 mmHg 68%
    14:00 +3°C° 0 mm 7 mps 762 mmHg 66%
    15:00 +2°C° 0 mm 7 mps 762 mmHg 69%
    16:00 +2°C° 0 mm 7 mps 762 mmHg 73%
    17:00 +1°C° 0 mm 6 mps 761 mmHg 76%
    18:00 +1°C° 0 mm 6 mps 761 mmHg 75%
    19:00 +1°C° 0 mm 6 mps 761 mmHg 75%
    20:00 +1°C° 0 mm 6 mps 761 mmHg 74%
    21:00 +1°C° 0 mm 6 mps 760 mmHg 73%
    22:00 +1°C° 0 mm 6 mps 760 mmHg 72%
    23:00 +1°C° 0 mm 6 mps 760 mmHg 70%
    Show more